Dubrovnik Airport, Croatia

6:33 AM CET on March 24, 2017 (GMT +0100)
Dubrovnik Airport

Weather History for 14474 - August, 2013

Change the Weather History Date:

Friday, August 23, 2013

  Actual Average Record
Temperature  
Mean Temperature 75 °F -  
Max Temperature 82 °F - - ()
Min Temperature 68 °F - - ()
Cooling Degree Days 10    
Growing Degree Days 25 (Base 50)    
Moisture  
Dew Point 64 °F    
Average Humidity 65    
Maximum Humidity 88    
Minimum Humidity 41    
Precipitation  
Precipitation 0.00 in - - ()
Sea Level Pressure  
Sea Level Pressure 29.96 in    
Wind  
Wind Speed 5 mph ()    
Max Wind Speed 9 mph    
Max Gust Speed -    
Visibility 6.8 miles    
Events      
T = Trace of Precipitation, MM = Missing Value Source: Averaged Metar Reports

Daily Weather History Graph

Daily Weather History Graph

Search for Another Location

Airport or City:

Trip Planner

Search our weather history database for the weather conditions in past years. The results will help you decide how hot, cold, wet, or windy it might be!

Date:

Astronomy

Aug. 23, 2013 Rise Set
Actual Time 6:02 AM CEST 7:36 PM CEST
Civil Twilight 5:32 AM CEST 8:05 PM CEST
Nautical Twilight 4:56 AM CEST 8:41 PM CEST
Astronomical Twilight 4:18 AM CEST 9:19 PM CEST
Moon 8:39 PM CEST (8/23) 8:42 AM CEST (8/23)
Length of Visible Light 14h 33m
Length of Day
13h 33m
Waning Gibbous, 93% of the Moon is Illuminated
Aug 23
Waning Gibbous
Aug 28
Last Quarter
Sep 5
New
Sep 12
First Quarter
Sep 19
Full

Hourly Weather History & Observations

Time (CEST) Temp. Heat Index Dew Point Humidity Pressure Visibility Wind Dir Wind Speed Gust Speed Precip Events Conditions
12:00 AM 73.4 °F - 64.4 °F 73% 29.95 in - WNW 9.2 mph - N/A   Clear
12:30 AM 73.4 °F - 62.6 °F 69% 29.95 in - NNW 4.6 mph - N/A   Clear
1:00 AM 73.4 °F - 62.6 °F 69% 29.95 in - WNW 9.2 mph - N/A   Clear
1:30 AM 73.4 °F - 62.6 °F 69% 29.95 in - NNW 4.6 mph - N/A   Clear
2:00 AM 76 °F - 57 °F 41% 29.93 in 9 mi NNW 8.9 mph - -  
2:00 AM 77.0 °F - 60.8 °F 57% 29.95 in - North 8.1 mph - N/A   Clear
2:30 AM 77.0 °F - 55.4 °F 47% 29.95 in - Variable 5.8 mph - N/A   Clear
3:00 AM 73.4 °F - 62.6 °F 69% 29.95 in - Variable 2.3 mph - N/A   Clear
3:30 AM 71.6 °F - 62.6 °F 73% 29.95 in - WNW 3.5 mph - N/A   Clear
4:00 AM 71.6 °F - 64.4 °F 78% 29.95 in - Variable 1.2 mph - N/A   Clear
4:30 AM 71.6 °F - 64.4 °F 78% 29.95 in - Calm Calm - N/A   Clear
5:00 AM 71.6 °F - 64.4 °F 78% 29.95 in - Calm Calm - N/A   Clear
5:30 AM 69.8 °F - 62.6 °F 78% 29.95 in - Calm Calm - N/A   Clear
6:00 AM 69.8 °F - 60.8 °F 73% 29.95 in - Calm Calm - N/A   Clear
6:30 AM 69.8 °F - 62.6 °F 78% 29.95 in - Calm Calm - N/A   Clear
7:00 AM 71.6 °F - 60.8 °F 69% 29.95 in - East 3.5 mph - N/A   Clear
7:30 AM 71.6 °F - 59.0 °F 64% 29.95 in - ENE 5.8 mph - N/A   Clear
8:00 AM 75 °F - 60 °F 49% 29.94 in 6 mi East 2.2 mph - -   Scattered Clouds
8:00 AM 75.2 °F - 59.0 °F 57% 29.95 in - East 3.5 mph - N/A   Clear
8:30 AM 77.0 °F - 59.0 °F 54% 29.95 in - East 4.6 mph - N/A   Clear
9:00 AM 78.8 °F - 59.0 °F 51% 29.95 in - East 6.9 mph - N/A   Clear
9:30 AM 80.6 °F 81.1 °F 59.0 °F 48% 29.95 in - ESE 5.8 mph - N/A   Clear
10:00 AM 78.8 °F - 64.4 °F 61% 29.98 in - Variable 6.9 mph - N/A   Clear
10:30 AM 78.8 °F - 64.4 °F 61% 29.98 in - South 5.8 mph - N/A   Clear
11:00 AM 80 °F - 65 °F 52% 29.96 in 6 mi South 4.5 mph - -  
11:00 AM 80.6 °F 82.3 °F 64.4 °F 58% 29.98 in - South 4.6 mph - N/A   Clear
11:30 AM 80.6 °F 81.8 °F 62.6 °F 54% 29.98 in - South 6.9 mph - N/A   Clear
12:00 PM 78.8 °F - 66.2 °F 65% 29.98 in - Variable 6.9 mph - N/A   Clear
12:30 PM 80.6 °F 82.7 °F 66.2 °F 61% 29.98 in - West 5.8 mph - N/A   Clear
1:00 PM 80.6 °F 83.2 °F 68.0 °F 65% 29.98 in - SW 5.8 mph - N/A   Clear
1:30 PM 80.6 °F 81.8 °F 62.6 °F 54% 29.98 in - Variable 5.8 mph - N/A   Clear
2:00 PM 81 °F - 64 °F 46% 29.96 in 7 mi WSW 6.7 mph - -   Scattered Clouds
2:00 PM 82.4 °F 83.4 °F 62.6 °F 51% 29.98 in 6.2 mi SW 5.8 mph - N/A   Partly Cloudy
2:30 PM 80.6 °F 82.7 °F 66.2 °F 61% 29.98 in 6.2 mi SSW 5.8 mph - N/A   Partly Cloudy
3:00 PM 80.6 °F 83.2 °F 68.0 °F 65% 29.98 in 6.2 mi SW 5.8 mph - N/A   Partly Cloudy
3:30 PM 80.6 °F 83.2 °F 68.0 °F 65% 29.98 in 6.2 mi WSW 6.9 mph - N/A   Partly Cloudy
4:00 PM 80.6 °F 82.3 °F 64.4 °F 58% 29.95 in 6.2 mi West 5.8 mph - N/A   Partly Cloudy
4:30 PM 82.4 °F 83.4 °F 62.6 °F 51% 29.95 in 6.2 mi West 5.8 mph - N/A   Partly Cloudy
5:00 PM 81 °F - 66 °F 52% 29.93 in 9 mi West 6.7 mph - -   Scattered Clouds
5:00 PM 80.6 °F 82.7 °F 66.2 °F 61% 29.95 in - West 6.9 mph - N/A   Clear
5:30 PM 80.6 °F 82.7 °F 66.2 °F 61% 29.95 in - WNW 8.1 mph - N/A   Clear
6:00 PM 78.8 °F - 68.0 °F 69% 29.95 in - WNW 9.2 mph - N/A   Clear
6:30 PM 77.0 °F - 66.2 °F 69% 29.95 in - WNW 8.1 mph - N/A   Clear
7:00 PM 75.2 °F - 66.2 °F 73% 29.95 in - WNW 6.9 mph - N/A   Clear
7:30 PM 75.2 °F - 66.2 °F 73% 29.95 in - WNW 3.5 mph - N/A   Clear
8:00 PM 73 °F - 67 °F 75% 29.94 in 7 mi WNW 4.5 mph - -  
8:00 PM 73.4 °F - 66.2 °F 78% 29.95 in - WNW 5.8 mph - N/A   Clear
8:30 PM 73.4 °F - 68.0 °F 83% 29.95 in - WNW 9.2 mph - N/A   Clear
9:00 PM 71.6 °F - 68.0 °F 88% 29.95 in - NW 4.6 mph - N/A   Clear
9:30 PM 71.6 °F - 66.2 °F 83% 29.98 in - WNW 5.8 mph - N/A   Clear
10:00 PM 71.6 °F - 66.2 °F 83% 29.98 in - NW 4.6 mph - N/A   Clear
10:30 PM 71.6 °F - 64.4 °F 78% 29.98 in - WNW 6.9 mph - N/A   Clear
11:00 PM 72 °F - 64 °F 70% 29.96 in 7 mi WNW 6.7 mph - -  
11:00 PM 71.6 °F - 64.4 °F 78% 29.98 in - WNW 5.8 mph - N/A   Clear
11:30 PM 71.6 °F - 62.6 °F 73% 29.98 in - NNW 3.5 mph - N/A   Clear